Location: Newark
(7.0858°N, 171.3717°E)
Time: 20:11:26
(UTC+00:00)

Vanguard 2 - Pass Details

Date: 26 November 2020
Orbit: 553 x 2937 km, 32.9° (Epoch: 17 January)

Event Time Altitude Azimuth Distance (km) Brightness Sun altitude
Rises 10:14:07 0° 255° (WSW) 5,130 12.2 -56.1°
Reaches altitude 10° 10:19:10 10° 235° (SW) 4,590 11.8 -57.2°
Maximum altitude 10:26:43 17° 200° (SSW) 4,592 11.6 -58.8°
Drops below altitude 10° 10:35:45 10° 167° (SSE) 5,585 11.9 -60.8°
Sets 10:43:20 0° 149° (SSE) 6,775 12.4 -62.4°
